CZ-6A DEB, 60655

Orbit data source: Space-Track

CZ-6A DEB, 60655 is space debris in LEO originally from a launch on Tue, 06 Aug 2024 UTC launched from the Taiyaun Space Center, China (TSC). Debris objects in space refer to the collection of defunct objects orbiting the Earth. Examples of debris include non-operational satellites, rocket bodies, and fragments generated from explosions, collisions, or faulty payload assembly.

Loading next visibility...
Identifier
60655, 2024-140BG
Orbit
LEO
Country
Flag of CNCN / PRC
Related business
Manufacturer
SAST
Mission
Spacecraft
Bus & Motor
Unknown
Mass
Unknown
Launch date (UTC)
2024-08-06 (1 year ago)
Launch vehicle
Unknown
Launch site
Taiyaun Space Center, China (TSC)
Object type
Payload
Rocket body
Debris
Shape & HBR
Unknown shape, 0.4 m
Radar Cross Section
Medium (>0.1 m² and <1 m²)

Expand to show TLE details & history
Last TLE update: 1 day ago

TLE from 1 day ago
0 CZ-6A DEB
1 60655U 24140BG  25312.49099830  .00000331  00000-0  14596-3 0  9993
2 60655  88.9988 299.6578 0040356 158.8327 201.4545 14.20583208 64859
Epoch: 2025-11-08T11:47Z
TLE epoch observation values (Epoch: 2025-11-08T11:47:02.253Z)
Latitude
0.00002°
Longitude
74.97856°
Altitude
853.505 km
Speed
7.412 km/s
True Right ascension
19h 58m 37s
True Declination
0° 00' 00"
Sunlit
Object was in daylight at epoch
Visualization orbit readout
Latitude
Unknown
Longitude
Unknown
Altitude
Unknown
Speed
Unknown
Apparent Right ascension
Unknown
Apparent Declination
Unknown
Sunlit
N/A
Visualization observer readout
Local Sidereal Time
19:51:17
Azimuth
Unknown
Elevation
Unknown
Doppler factor
Unknown
Orbital elements
Apogee altitude
849.382 km
Perigee altitude
791.281 km
Semi-major axis
7,198.468 km
Eccentricity
0.00404
Inclination
88.9988°
RAAN
299.6578°
Arg. of periapsis
158.8327°
True anomaly
201.28615°
Mean anomaly
201.4545°
Eccentric anomaly
201.37024°
Mean motion
3.55372 °/min
Orbital period
101.3 mins
BSTAR
0.00014596
Loading maneuver chart data...
Computing Atmospheric mass density...

Documentation

Showing up to 5 results
|